Terminal Aerodrome Forecast
Issued by NWS Houston/Galveston TX

Home | Current Version | Previous Version | Text Only | Print | Product List | Glossary On
Versions: 1 2 3 4 5 6 7 8 9 10 11 12 13 14 15 16 17 18 19 20 21 22 23 24 25 26 27 28 29 30
000
FTUS44 KHGX 230804 AAC
TAFHOU
TAF AMD
KHOU 230804Z 2308/2406 21004KT 1 1/2SM BR OVC002
      TEMPO 2312/2315 4SM BR BKN004
     FM231500 17006KT P6SM SCT020
     FM231800 16011KT P6SM SCT040
     FM240100 16008KT P6SM FEW040=

USA.gov is the U.S. government's official web portal to all federal, state and local government web resources and services.